Location: Edinburgh
(55.9500°N, 3.1600°W)
Time: 17:06:25
(UTC+01:00)

SPROUT - Visible Passes

Search period start: 28 May 2024 00:00
Search period end: 07 June 2024 00:00
Orbit: 433 x 446 km, 98.0° (Epoch: 28 May)

Date Brightness Start Highest point End Pass type
(mag) Time Alt. Az. Time Alt. Az. Time Alt. Az.
28 May ? 02:31:45 10° E 02:33:39 14° NE 02:35:33 10° NNE visible
29 May ? 03:24:23 10° SE 03:27:34 41° ENE 03:30:47 10° N visible
30 May ? 02:47:01 10° ESE 02:49:26 19° ENE 02:51:52 10° NNE visible
01 Jun ? 03:01:38 10° ESE 03:04:23 24° ENE 03:07:10 10° N visible
02 Jun ? 02:24:30 10° ENE 02:25:46 12° NE 02:27:01 10° NNE visible
03 Jun ? 03:15:32 10° SE 03:18:31 31° ENE 03:21:32 10° N visible
04 Jun ? 02:37:30 10° E 02:39:25 15° NE 02:41:21 10° NNE visible
05 Jun ? 03:28:41 10° SE 03:31:50 41° ENE 03:34:59 10° N visible
06 Jun ? 02:49:55 10° ESE 02:52:15 18° ENE 02:54:36 10° NNE visible
